User: anonymous   Login
Location: Caltech
(34.1382°N, 118.1253°W)
Time: 18:04:10
(UTC-07:00)
Language:

BREEZE M DEB (TANK) - Orbit

View from above orbital plane
View from above orbital plane
View from above satellite
View from above satellite

Ground track
Ground track

The orbit data is extracted from the following two-line orbital elements,

1 33437U 08057B   14297.69502251  .00002363  00000-0  70918-3 0  1166
2 33437 049.5738 350.2519 5008387 095.2755 016.8990 05.56109282119841
Epoch (UTC): 24 October 2014 16:40:49
Eccentricity: 0.5008387
inclination: 49.5738°
perigee height: 339 km
apogee height: 13819 km
right ascension of ascending node: 350.2519°
argument of perigee: 95.2755°
revolutions per day: 5.56109282
mean anomaly at epoch: 16.8990°
orbit number at epoch: 11984

The dashed part of the orbit path shows where the satellite is in the earth's shadow,  

DLR